When you browse on this site, cookies collect data to enhance your experience and personalize the content and advertising you see.
Visit our Privacy Policy to learn more. By continuing to use the site, you agree to this use of cookies and data.
  • In Österreich
  • Länderverzeichnis
  • Für 7 Tage
  • Wassertemperatur
  • Satellitenkarten
  • Wetterkarte
  • News
  • Widgets
  • user-avatar
    Anmelden

    Stündliche Wetter Innsbruck

    Heute, 20 März, Mittwoch

    Zeit Temperatur Niederschläge Wind Luftdruck Luftfeuchtigkeit
    00:00 -12°C° 0 mm 1 m/S 597 mmHg 89%
    01:00 -11°C° 0 mm 1 m/S 597 mmHg 90%
    02:00 -12°C° 0 mm 1 m/S 597 mmHg 89%
    03:00 -12°C° 0 mm 1 m/S 597 mmHg 89%
    04:00 -13°C° 0 mm 1 m/S 597 mmHg 88%
    05:00 -13°C° 0 mm 1 m/S 597 mmHg 84%
    06:00 -13°C° 0 mm 1 m/S 597 mmHg 81%
    07:00 -11°C° 0 mm 1 m/S 598 mmHg 77%
    08:00 -9°C° 0 mm 1 m/S 599 mmHg 71%
    09:00 -7°C° 0 mm 1 m/S 600 mmHg 65%
    10:00 -3°C° 0 mm 1 m/S 601 mmHg 58%
    11:00 -5°C° 0 mm 2 m/S 601 mmHg 60%
    12:00 -4°C° 0 mm 2 m/S 601 mmHg 61%
    13:00 -3°C° 0 mm 2 m/S 601 mmHg 62%
    14:00 -3°C° 0 mm 2 m/S 601 mmHg 64%
    15:00 -3°C° 0 mm 2 m/S 601 mmHg 66%
    16:00 -3°C° 0 mm 2 m/S 601 mmHg 68%
    17:00 -3°C° 0 mm 1 m/S 600 mmHg 74%
    18:00 -7°C° 0 mm 1 m/S 599 mmHg 81%
    19:00 -9°C° 0 mm 1 m/S 598 mmHg 87%
    20:00 -9°C° 0 mm 1 m/S 599 mmHg 82%
    21:00 -10°C° 0 mm 1 m/S 599 mmHg 78%
    22:00 -10°C° 0 mm 1 m/S 599 mmHg 73%
    23:00 -10°C° 0 mm 1 m/S 599 mmHg 69%

    Morgen, 21 März, Donnerstag

    Zeit Temperatur Niederschläge Wind Luftdruck Luftfeuchtigkeit
    00:00 -10°C° 0 mm 1 m/S 600 mmHg 64%
    01:00 -10°C° 0 mm 1 m/S 600 mmHg 60%
    02:00 -10°C° 0 mm 1 m/S 600 mmHg 57%
    03:00 -10°C° 0 mm 2 m/S 600 mmHg 54%
    04:00 -10°C° 0 mm 2 m/S 599 mmHg 51%
    05:00 -10°C° 0 mm 2 m/S 600 mmHg 50%
    06:00 -9°C° 0 mm 2 m/S 600 mmHg 49%
    07:00 -9°C° 0 mm 2 m/S 600 mmHg 48%
    08:00 -6°C° 0 mm 2 m/S 601 mmHg 52%
    09:00 0°C° 0 mm 1 m/S 603 mmHg 56%
    10:00 +3°C° 0 mm 1 m/S 604 mmHg 60%
    11:00 +4°C° 0 mm 1 m/S 604 mmHg 62%
    12:00 +5°C° 0 mm 1 m/S 604 mmHg 65%
    13:00 +6°C° 0 mm 1 m/S 604 mmHg 68%
    14:00 +5°C° 0 mm 1 m/S 604 mmHg 70%
    15:00 +5°C° 0 mm 1 m/S 603 mmHg 71%
    16:00 +5°C° 0 mm 1 m/S 603 mmHg 73%
    17:00 +3°C° 0 mm 1 m/S 602 mmHg 70%
    18:00 0°C° 0 mm 1 m/S 601 mmHg 67%
    19:00 -2°C° 0 mm 1 m/S 600 mmHg 64%
    20:00 -4°C° 0 mm 2 m/S 601 mmHg 60%
    21:00 -5°C° 0 mm 2 m/S 601 mmHg 55%
    22:00 -5°C° 0 mm 2 m/S 601 mmHg 51%
    23:00 -5°C° 0 mm 2 m/S 601 mmHg 49%

    übermorgen, 22 März, Freitag

    Zeit Temperatur Niederschläge Wind Luftdruck Luftfeuchtigkeit
    00:00 -5°C° 0 mm 2 m/S 601 mmHg 48%
    01:00 -6°C° 0 mm 2 m/S 601 mmHg 46%
    02:00 -6°C° 0 mm 2 m/S 600 mmHg 45%
    03:00 -6°C° 0 mm 2 m/S 600 mmHg 45%
    04:00 -6°C° 0 mm 2 m/S 600 mmHg 45%
    05:00 -5°C° 0 mm 2 m/S 600 mmHg 44%
    06:00 -5°C° 0 mm 2 m/S 600 mmHg 44%
    07:00 -5°C° 0 mm 2 m/S 600 mmHg 43%
    08:00 -2°C° 0 mm 2 m/S 602 mmHg 52%
    09:00 +3°C° 0 mm 1 m/S 603 mmHg 60%
    10:00 +6°C° 0 mm 1 m/S 604 mmHg 68%
    11:00 +7°C° 0 mm 1 m/S 604 mmHg 67%
    12:00 +6°C° 0 mm 0 m/S 604 mmHg 66%
    13:00 +7°C° 0 mm 0 m/S 604 mmHg 66%
    14:00 +7°C° 0 mm 0 m/S 604 mmHg 66%
    15:00 +7°C° 0 mm 0 m/S 603 mmHg 67%
    16:00 +6°C° 0 mm 0 m/S 603 mmHg 67%
    17:00 +4°C° 0 mm 0 m/S 602 mmHg 70%
    18:00 +1°C° 0 mm 0 m/S 601 mmHg 72%
    19:00 -1°C° 0 mm 0 m/S 600 mmHg 74%
    20:00 0°C° 0 mm 1 m/S 600 mmHg 72%
    21:00 -1°C° 0 mm 1 m/S 600 mmHg 69%
    22:00 -3°C° 0 mm 2 m/S 601 mmHg 66%
    23:00 -3°C° 0 mm 2 m/S 601 mmHg 64%

    23 März, Samstag

    Zeit Temperatur Niederschläge Wind Luftdruck Luftfeuchtigkeit
    00:00 -3°C° 0 mm 2 m/S 601 mmHg 62%
    01:00 -1°C° 0 mm 1 m/S 600 mmHg 59%
    02:00 -2°C° 0 mm 1 m/S 600 mmHg 60%
    03:00 -2°C° 0 mm 1 m/S 600 mmHg 60%
    04:00 -2°C° 0 mm 1 m/S 600 mmHg 60%
    05:00 -2°C° 0 mm 1 m/S 600 mmHg 61%
    06:00 -2°C° 0 mm 1 m/S 600 mmHg 62%
    07:00 -2°C° 0 mm 1 m/S 600 mmHg 63%
    08:00 +1°C° 0 mm 1 m/S 601 mmHg 63%
    09:00 +4°C° 0 mm 1 m/S 602 mmHg 62%
    10:00 +6°C° 0 mm 1 m/S 603 mmHg 62%
    11:00 +7°C° 0 mm 1 m/S 603 mmHg 61%
    12:00 +7°C° 0 mm 1 m/S 603 mmHg 60%
    13:00 +8°C° 0 mm 1 m/S 603 mmHg 58%
    14:00 +8°C° 0 mm 1 m/S 603 mmHg 60%
    15:00 +8°C° 0 mm 1 m/S 602 mmHg 62%
    16:00 +7°C° 0 mm 1 m/S 602 mmHg 64%
    17:00 +5°C° 0 mm 1 m/S 601 mmHg 69%
    18:00 +2°C° 0 mm 0 m/S 600 mmHg 74%
    19:00 0°C° 0 mm 0 m/S 599 mmHg 80%
    20:00 0°C° 0 mm 1 m/S 599 mmHg 76%
    21:00 0°C° 0 mm 1 m/S 599 mmHg 72%
    22:00 -2°C° 0 mm 2 m/S 600 mmHg 69%
    23:00 -2°C° 0 mm 2 m/S 599 mmHg 67%

    24 März, Sonntag

    Zeit Temperatur Niederschläge Wind Luftdruck Luftfeuchtigkeit
    00:00 -2°C° 0 mm 2 m/S 599 mmHg 65%
    01:00 -3°C° 0 mm 2 m/S 599 mmHg 63%
    02:00 -3°C° 0 mm 2 m/S 599 mmHg 63%
    03:00 -3°C° 0 mm 2 m/S 598 mmHg 64%
    04:00 -4°C° 0 mm 3 m/S 598 mmHg 64%
    05:00 -3°C° 0 mm 2 m/S 598 mmHg 65%
    06:00 -3°C° 0 mm 2 m/S 598 mmHg 65%
    07:00 -3°C° 0 mm 2 m/S 598 mmHg 66%
    08:00 +1°C° 0 mm 2 m/S 599 mmHg 63%
    09:00 +5°C° 0 mm 1 m/S 600 mmHg 60%
    10:00 +7°C° 0 mm 1 m/S 601 mmHg 57%
    11:00 +8°C° 0 mm 1 m/S 601 mmHg 56%
    12:00 +8°C° 0 mm 1 m/S 601 mmHg 55%
    13:00 +9°C° 0 mm 1 m/S 601 mmHg 54%
    14:00 +8°C° 0 mm 1 m/S 600 mmHg 57%
    15:00 +8°C° 0 mm 1 m/S 600 mmHg 60%
    16:00 +7°C° 0 mm 1 m/S 599 mmHg 63%
    17:00 +5°C° 0 mm 1 m/S 599 mmHg 72%
    18:00 +4°C° 0 mm 1 m/S 598 mmHg 81%
    19:00 +2°C° 0 mm 1 m/S 597 mmHg 89%
    20:00 +1°C° 0 mm 1 m/S 597 mmHg 90%
    21:00 +1°C° 0 mm 1 m/S 598 mmHg 92%
    22:00 +1°C° 0 mm 1 m/S 598 mmHg 93%
    23:00 +1°C° 0 mm 1 m/S 598 mmHg 93%

    25 März, Montag

    Zeit Temperatur Niederschläge Wind Luftdruck Luftfeuchtigkeit
    00:00 0°C° 0 mm 1 m/S 597 mmHg 94%
    01:00 0°C° 0 mm 1 m/S 597 mmHg 94%
    02:00 0°C° 0 mm 1 m/S 597 mmHg 94%
    03:00 -1°C° 0 mm 1 m/S 596 mmHg 93%
    04:00 -1°C° 0 mm 1 m/S 596 mmHg 93%
    05:00 -1°C° 0 mm 1 m/S 596 mmHg 91%
    06:00 -1°C° 0 mm 1 m/S 596 mmHg 90%
    07:00 -1°C° 0 mm 1 m/S 596 mmHg 89%
    08:00 -1°C° 0 mm 2 m/S 597 mmHg 84%
    09:00 +1°C° 0 mm 2 m/S 597 mmHg 79%
    10:00 +2°C° 0 mm 2 m/S 598 mmHg 74%
    11:00 +2°C° 0.1 mm 2 m/S 597 mmHg 74%
    12:00 +2°C° 0.1 mm 2 m/S 597 mmHg 74%
    13:00 +3°C° 0.1 mm 2 m/S 597 mmHg 74%
    14:00 +2°C° 0.1 mm 2 m/S 596 mmHg 76%
    15:00 +1°C° 0.1 mm 3 m/S 596 mmHg 78%
    16:00 0°C° 0.1 mm 3 m/S 595 mmHg 80%
    17:00 -1°C° 0.1 mm 3 m/S 595 mmHg 85%
    18:00 -2°C° 0.1 mm 3 m/S 595 mmHg 89%
    19:00 -3°C° 0.1 mm 2 m/S 595 mmHg 93%
    20:00 -3°C° 0.1 mm 2 m/S 595 mmHg 93%
    21:00 -4°C° 0.1 mm 2 m/S 595 mmHg 93%
    22:00 -4°C° 0.1 mm 2 m/S 595 mmHg 93%
    23:00 -5°C° 0.1 mm 2 m/S 595 mmHg 93%
    Mehr zeigen